Westerly, RI

2:28 PM EDT on August 23, 2017 (GMT -0400)
Westerly State

Weather History for KWST - November, 2012

Change the Weather History Date:

Wednesday, November 14, 2012

  Actual Average (KGON) Record (KGON)
Temperature  
Mean Temperature 39 °F -  
Max Temperature 48 °F 51 °F 67 °F (1993)
Min Temperature 30 °F 35 °F 18 °F (1986)
Degree Days  
Heating Degree Days 26    
Moisture  
Dew Point 26 °F    
Average Humidity 60    
Maximum Humidity 82    
Minimum Humidity 36    
Precipitation  
Precipitation 0.00 in - - ()
Sea Level Pressure  
Sea Level Pressure 30.46 in    
Wind  
Wind Speed 9 mph (North)    
Max Wind Speed 15 mph    
Max Gust Speed 22 mph    
Visibility 10 miles    
Events      
Averages and records for this station are not official NWS values.
T = Trace of Precipitation, MM = Missing Value Source: NWS Daily Summary

Daily Weather History Graph

Daily Weather History Graph

Search for Another Location

Airport or City:

Trip Planner

Search our weather history database for the weather conditions in past years. The results will help you decide how hot, cold, wet, or windy it might be!

Date:

Astronomy

Nov. 14, 2012 Rise Set
Actual Time 6:34 AM EST 4:28 PM EST
Civil Twilight 6:05 AM EST 4:57 PM EST
Nautical Twilight 5:31 AM EST 5:31 PM EST
Astronomical Twilight 4:59 AM EST 6:03 PM EST
Moon 7:21 AM EST (11/14) 5:13 PM EST (11/14)
Length of Visible Light 10h 52m
Length of Day
9h 53m
New Moon, 1% of the Moon is Illuminated
Nov 14
New Moon
Nov 20
First Quarter
Nov 28
Full
Dec 6
Last Quarter
Dec 13
New

Hourly Weather History & Observations

Time (EST) Temp. Windchill Dew Point Humidity Pressure Visibility Wind Dir Wind Speed Gust Speed Precip Events Conditions
12:53 AM 41.0 °F 33.9 °F 30.0 °F 65% 30.41 in 10.0 mi North 12.7 mph - N/A   Overcast
1:51 AM 39.2 °F 32.5 °F 28.4 °F 65% 30.42 in 10.0 mi North 10.4 mph - N/A   Overcast
1:53 AM 39.9 °F 33.9 °F 28.9 °F 65% 30.42 in 10.0 mi North 9.2 mph - N/A   Overcast
2:53 AM 39.9 °F 32.9 °F 28.9 °F 65% 30.42 in 10.0 mi North 11.5 mph - N/A   Overcast
3:38 AM 39.2 °F 32.5 °F 28.4 °F 65% 30.43 in 10.0 mi North 10.4 mph - N/A   Overcast
3:53 AM 39.9 °F 33.9 °F 28.9 °F 65% 30.43 in 10.0 mi North 9.2 mph - N/A   Overcast
4:53 AM 39.9 °F 35.1 °F 28.9 °F 65% 30.45 in 10.0 mi North 6.9 mph - N/A   Overcast
5:53 AM 39.0 °F 33.4 °F 28.9 °F 67% 30.46 in 10.0 mi North 8.1 mph - N/A   Overcast
6:53 AM 39.0 °F 33.4 °F 28.9 °F 67% 30.48 in 10.0 mi North 8.1 mph - N/A   Overcast
7:53 AM 39.9 °F 34.5 °F 28.9 °F 65% 30.49 in 10.0 mi North 8.1 mph 16.1 mph N/A   Overcast
8:53 AM 42.1 °F 34.9 °F 30.9 °F 65% 30.50 in 10.0 mi North 13.8 mph 21.9 mph N/A   Overcast
9:53 AM 44.1 °F 37.7 °F 30.9 °F 60% 30.51 in 10.0 mi NNE 12.7 mph 20.7 mph N/A   Overcast
10:53 AM 46.0 °F 41.0 °F 25.0 °F 44% 30.49 in 10.0 mi NNE 10.4 mph 17.3 mph N/A   Clear
11:53 AM 46.0 °F 39.6 °F 21.9 °F 39% 30.48 in 10.0 mi North 15.0 mph 21.9 mph N/A   Clear
12:53 PM 46.9 °F - 21.9 °F 37% 30.46 in 10.0 mi North 13.8 mph 19.6 mph N/A   Clear
1:53 PM 48.0 °F - 21.9 °F 36% 30.45 in 10.0 mi NNE 10.4 mph 17.3 mph N/A   Clear
2:53 PM 48.0 °F - 23.0 °F 37% 30.45 in 10.0 mi NNE 8.1 mph - N/A   Clear
3:53 PM 46.9 °F - 24.1 °F 41% 30.46 in 10.0 mi North 6.9 mph - N/A   Clear
4:53 PM 43.0 °F 41.3 °F 24.1 °F 47% 30.47 in 10.0 mi NNE 3.5 mph - N/A   Clear
5:53 PM 39.0 °F - 25.0 °F 57% 30.49 in 10.0 mi Calm Calm - N/A   Clear
6:53 PM 34.0 °F - 25.0 °F 70% 30.48 in 10.0 mi Calm Calm - N/A   Clear
7:53 PM 33.1 °F - 25.0 °F 72% 30.48 in 10.0 mi Calm Calm - N/A   Clear
8:53 PM 32.0 °F - 25.0 °F 75% 30.49 in 10.0 mi Calm Calm - N/A   Clear
9:53 PM 30.0 °F - 23.0 °F 75% 30.48 in 10.0 mi Calm Calm - N/A   Clear
10:53 PM 30.9 °F 27.5 °F 26.1 °F 82% 30.45 in 10.0 mi NNE 3.5 mph - N/A   Clear
11:53 PM 33.1 °F 28.7 °F 24.1 °F 70% 30.43 in 10.0 mi North 4.6 mph - N/A   Clear